Location: Newark
(51.0500°N, 12.4500°E)
Time: 22:23:01
(UTC+00:00)

Vanguard 1 - Pass Details

Date: 18 February 2020
Orbit: 649 x 3833 km, 34.2° (Epoch: 05 April)

Event Time Altitude Azimuth Distance (km) Brightness Sun altitude
Rises 06:55:54 0° 208° (SSW) 7,877 14.7 4.6°
Reaches altitude 10° 07:03:19 10° 196° (SSW) 6,580 14.4 5.7°
Maximum altitude 07:16:52 23° 154° (SSE) 4,636 14.5 7.6°
Drops below altitude 10° 07:26:40 10° 109° (ESE) 4,674 15.7 8.9°
Sets 07:30:39 0° 96° (E) 5,212 15.0 9.4°
